Year,Month,Day,Hour,Minute,Value (Times are PST for temperature in C)
2012,07,26,11,13,20.40
2012,07,26,11,14,20.40
2012,07,26,11,15,20.50
2012,07,26,11,16,20.50
2012,07,26,11,17,20.50
2012,07,26,11,18,20.40
2012,07,26,11,19,20.40
2012,07,26,11,20,20.40
2012,07,26,11,21,20.40
2012,07,26,11,22,20.30
2012,07,26,11,23,20.30
2012,07,26,11,24,20.20
2012,07,26,11,25,20.20
2012,07,26,11,26,20.20
2012,07,26,11,27,20.20
2012,07,26,11,28,20.20
2012,07,26,11,29,20.20
2012,07,26,11,30,20.30
2012,07,26,11,31,20.50
2012,07,26,11,32,20.60
2012,07,26,11,33,20.60
2012,07,26,11,34,20.70
2012,07,26,11,35,20.70
2012,07,26,11,36,20.70
2012,07,26,11,37,20.60
2012,07,26,11,38,20.60
2012,07,26,11,39,20.60
2012,07,26,11,40,20.60
2012,07,26,11,41,20.50
2012,07,26,11,42,20.50
2012,07,26,11,43,20.40
2012,07,26,11,44,20.30
2012,07,26,11,45,20.30
2012,07,26,11,46,20.30
2012,07,26,11,47,20.30
2012,07,26,11,48,20.30
2012,07,26,11,49,20.30
2012,07,26,11,50,20.30
2012,07,26,11,51,20.30
2012,07,26,11,52,20.30
2012,07,26,11,53,20.30
2012,07,26,11,54,20.30
2012,07,26,11,55,20.40
2012,07,26,11,56,20.50
2012,07,26,11,57,20.60
2012,07,26,11,58,20.60
2012,07,26,11,59,20.80
2012,07,26,12,00,20.90
2012,07,26,12,01,20.90
2012,07,26,12,02,20.90
2012,07,26,12,03,20.90
2012,07,26,12,04,21.00
2012,07,26,12,05,21.00
2012,07,26,12,06,21.00
2012,07,26,12,07,21.00
2012,07,26,12,08,21.10
2012,07,26,12,09,21.00
2012,07,26,12,10,21.00
2012,07,26,12,11,20.90
2012,07,26,12,12,20.90
2012,07,26,12,13,20.90
2012,07,26,12,14,20.80
2012,07,26,12,15,20.80
2012,07,26,12,16,20.90
2012,07,26,12,17,20.80
2012,07,26,12,18,20.80
2012,07,26,12,19,20.80
2012,07,26,12,20,20.80
2012,07,26,12,21,20.80
2012,07,26,12,22,20.90
2012,07,26,12,23,20.90
2012,07,26,12,24,20.90
2012,07,26,12,25,21.00
2012,07,26,12,26,21.00
2012,07,26,12,27,21.10
2012,07,26,12,28,21.20
2012,07,26,12,29,21.20
2012,07,26,12,30,21.30
2012,07,26,12,31,21.30
2012,07,26,12,32,21.40
2012,07,26,12,33,21.30
2012,07,26,12,34,21.30
2012,07,26,12,35,21.30
2012,07,26,12,36,21.30
2012,07,26,12,37,21.30
2012,07,26,12,38,21.30
2012,07,26,12,39,21.20
2012,07,26,12,40,21.10
2012,07,26,12,41,21.10
2012,07,26,12,42,21.10
2012,07,26,12,43,21.00
2012,07,26,12,44,21.00
2012,07,26,12,45,21.00
2012,07,26,12,46,21.10
2012,07,26,12,47,21.20
2012,07,26,12,48,21.20
2012,07,26,12,49,21.30
2012,07,26,12,50,21.40
2012,07,26,12,51,21.50
2012,07,26,12,52,21.60
2012,07,26,12,53,21.70
2012,07,26,12,54,21.80
2012,07,26,12,55,21.80
2012,07,26,12,56,21.80
2012,07,26,12,57,21.80
2012,07,26,12,58,21.80
2012,07,26,12,59,21.80
2012,07,26,13,00,21.80
2012,07,26,13,01,21.80
2012,07,26,13,02,21.70
2012,07,26,13,03,21.60
2012,07,26,13,04,21.60
2012,07,26,13,05,21.70
2012,07,26,13,06,21.70
2012,07,26,13,07,21.60
2012,07,26,13,08,21.60
2012,07,26,13,09,21.60
2012,07,26,13,10,21.60
2012,07,26,13,11,21.70
2012,07,26,13,12,21.80
2012,07,26,13,13,21.80
2012,07,26,13,14,21.90
2012,07,26,13,15,22.00
2012,07,26,13,16,22.00
2012,07,26,13,17,22.10
2012,07,26,13,18,22.10
2012,07,26,13,19,22.00
2012,07,26,13,20,21.90
2012,07,26,13,21,21.90
2012,07,26,13,22,21.80
2012,07,26,13,23,21.80
2012,07,26,13,24,21.90
2012,07,26,13,25,21.90
2012,07,26,13,26,21.90
2012,07,26,13,27,22.00
2012,07,26,13,28,22.10
2012,07,26,13,29,22.10
2012,07,26,13,30,22.20
2012,07,26,13,31,22.20
2012,07,26,13,32,22.20
2012,07,26,13,33,22.10
2012,07,26,13,34,22.00
2012,07,26,13,35,21.90
2012,07,26,13,36,21.80
2012,07,26,13,37,21.80
2012,07,26,13,38,21.80
2012,07,26,13,39,21.90
2012,07,26,13,40,21.90
2012,07,26,13,41,21.90
2012,07,26,13,42,21.90
2012,07,26,13,43,21.90
2012,07,26,13,44,21.90
2012,07,26,13,45,21.90
2012,07,26,13,46,22.00
2012,07,26,13,47,22.10
2012,07,26,13,48,22.00
2012,07,26,13,49,21.90
2012,07,26,13,50,21.90
2012,07,26,13,51,22.00
2012,07,26,13,52,22.10
2012,07,26,13,53,22.00
2012,07,26,13,54,21.90
2012,07,26,13,55,21.80
2012,07,26,13,56,21.70
2012,07,26,13,57,21.60
2012,07,26,13,58,21.60
2012,07,26,13,59,21.50
2012,07,26,14,00,21.50
2012,07,26,14,01,21.50
2012,07,26,14,02,21.60
2012,07,26,14,03,21.80
2012,07,26,14,04,21.90
2012,07,26,14,05,22.00
2012,07,26,14,06,22.10
2012,07,26,14,07,22.20
2012,07,26,14,08,22.20
2012,07,26,14,09,22.20
2012,07,26,14,10,22.30
2012,07,26,14,11,22.30
2012,07,26,14,12,22.30
2012,07,26,14,13,22.30
2012,07,26,14,14,22.20
2012,07,26,14,15,22.10
2012,07,26,14,16,22.10
2012,07,26,14,17,22.10
2012,07,26,14,18,22.10
2012,07,26,14,19,22.20
2012,07,26,14,20,22.20
2012,07,26,14,21,22.10
2012,07,26,14,22,22.00
2012,07,26,14,23,21.90
2012,07,26,14,24,21.90
2012,07,26,14,25,21.90
2012,07,26,14,26,21.90
2012,07,26,14,27,21.90
2012,07,26,14,28,21.90
2012,07,26,14,29,22.00
2012,07,26,14,30,22.00
2012,07,26,14,31,22.10
2012,07,26,14,32,22.10
2012,07,26,14,33,22.10
2012,07,26,14,34,22.20
2012,07,26,14,35,22.20
2012,07,26,14,36,22.30
2012,07,26,14,37,22.40
2012,07,26,14,38,22.50
2012,07,26,14,39,22.50
2012,07,26,14,40,22.70
2012,07,26,14,41,22.70
2012,07,26,14,42,22.70
2012,07,26,14,43,22.60
2012,07,26,14,44,22.60
2012,07,26,14,45,22.60
2012,07,26,14,46,22.60
2012,07,26,14,47,22.70
2012,07,26,14,48,22.80
2012,07,26,14,49,22.90
2012,07,26,14,50,22.90
2012,07,26,14,51,22.90
2012,07,26,14,52,23.00
2012,07,26,14,53,23.00
2012,07,26,14,54,23.10
2012,07,26,14,55,23.20
2012,07,26,14,56,23.20
2012,07,26,14,57,23.20
2012,07,26,14,58,23.30
2012,07,26,14,59,23.30
2012,07,26,15,00,23.30
2012,07,26,15,01,23.20
2012,07,26,15,02,23.20
2012,07,26,15,03,23.20
2012,07,26,15,04,23.20
2012,07,26,15,05,23.30
2012,07,26,15,06,23.40
2012,07,26,15,07,23.60
2012,07,26,15,08,23.70
2012,07,26,15,09,23.70
2012,07,26,15,10,23.80
2012,07,26,15,11,23.80
2012,07,26,15,12,23.90
2012,07,26,15,13,23.90
2012,07,26,15,14,24.00
2012,07,26,15,15,24.10
2012,07,26,15,16,24.20
2012,07,26,15,17,24.20
2012,07,26,15,18,24.10
2012,07,26,15,19,24.00
2012,07,26,15,20,23.90
2012,07,26,15,21,23.80
2012,07,26,15,22,23.80
2012,07,26,15,23,23.70
2012,07,26,15,24,23.70
2012,07,26,15,25,23.70
2012,07,26,15,26,23.60
2012,07,26,15,27,23.60
2012,07,26,15,28,23.60
2012,07,26,15,29,23.50
2012,07,26,15,30,23.50
2012,07,26,15,31,23.40
2012,07,26,15,32,23.40
2012,07,26,15,33,23.40
2012,07,26,15,34,23.40
2012,07,26,15,35,23.50
2012,07,26,15,36,23.50
2012,07,26,15,37,23.50
2012,07,26,15,38,23.50
2012,07,26,15,39,23.50
2012,07,26,15,40,23.40
2012,07,26,15,41,23.30
2012,07,26,15,42,23.20
2012,07,26,15,43,23.10
2012,07,26,15,44,23.00
2012,07,26,15,45,23.00
2012,07,26,15,46,23.00
2012,07,26,15,47,23.00
2012,07,26,15,48,23.00
2012,07,26,15,49,23.10
2012,07,26,15,50,23.10
2012,07,26,15,51,23.20
2012,07,26,15,52,23.20
2012,07,26,15,53,23.20
2012,07,26,15,54,23.20
2012,07,26,15,55,23.30
2012,07,26,15,56,23.30
2012,07,26,15,57,23.40
2012,07,26,15,58,23.40
2012,07,26,15,59,23.50
2012,07,26,16,00,23.60
2012,07,26,16,01,23.70
2012,07,26,16,02,23.80
2012,07,26,16,03,23.90
2012,07,26,16,04,24.00
2012,07,26,16,05,24.00
2012,07,26,16,06,24.00
2012,07,26,16,07,24.10
2012,07,26,16,08,24.20
2012,07,26,16,09,24.20
2012,07,26,16,10,24.40
2012,07,26,16,11,24.50
2012,07,26,16,12,24.50
2012,07,26,16,13,24.60
2012,07,26,16,14,24.50
2012,07,26,16,15,24.50
2012,07,26,16,16,24.60
2012,07,26,16,17,24.60
2012,07,26,16,18,24.60
2012,07,26,16,19,24.60
2012,07,26,16,20,24.60
2012,07,26,16,21,24.60
2012,07,26,16,22,24.60
2012,07,26,16,23,24.70
2012,07,26,16,24,24.70
2012,07,26,16,25,24.80
2012,07,26,16,26,24.80
2012,07,26,16,27,24.90
2012,07,26,16,28,24.90
2012,07,26,16,29,25.00
2012,07,26,16,30,25.20
2012,07,26,16,31,25.30
2012,07,26,16,32,25.40
2012,07,26,16,33,25.50
2012,07,26,16,34,25.40
2012,07,26,16,35,25.40
2012,07,26,16,36,25.30
2012,07,26,16,37,25.30
2012,07,26,16,38,25.20
2012,07,26,16,39,25.20
2012,07,26,16,40,25.20
2012,07,26,16,41,25.30
2012,07,26,16,42,25.30
2012,07,26,16,43,25.40
2012,07,26,16,44,25.50
2012,07,26,16,45,25.60
2012,07,26,16,46,25.70
2012,07,26,16,47,25.80
2012,07,26,16,48,25.90
2012,07,26,16,49,25.90
2012,07,26,16,50,25.90
2012,07,26,16,51,26.00
2012,07,26,16,52,26.10
2012,07,26,16,53,26.10
2012,07,26,16,54,26.10
2012,07,26,16,55,26.10
2012,07,26,16,56,26.10
2012,07,26,16,57,26.10
2012,07,26,16,58,26.10
2012,07,26,16,59,26.10
2012,07,26,17,00,26.10
2012,07,26,17,01,26.10
2012,07,26,17,02,26.10
2012,07,26,17,03,26.10
2012,07,26,17,04,26.10
2012,07,26,17,05,26.20
2012,07,26,17,06,26.10
2012,07,26,17,07,26.10
2012,07,26,17,08,26.00
2012,07,26,17,09,25.90
2012,07,26,17,10,25.90
2012,07,26,17,11,25.90
2012,07,26,17,12,25.80
2012,07,26,17,13,25.80
2012,07,26,17,14,25.90
2012,07,26,17,15,25.90
2012,07,26,17,16,25.90
2012,07,26,17,17,26.00
2012,07,26,17,18,26.00
2012,07,26,17,19,26.10
2012,07,26,17,20,26.20
2012,07,26,17,21,26.30
2012,07,26,17,22,26.30
2012,07,26,17,23,26.30
2012,07,26,17,24,26.30
2012,07,26,17,25,26.30
2012,07,26,17,26,26.30
2012,07,26,17,27,26.30
2012,07,26,17,28,26.40
2012,07,26,17,29,26.40
2012,07,26,17,30,26.30
2012,07,26,17,31,26.30
2012,07,26,17,32,26.30
2012,07,26,17,33,26.30
2012,07,26,17,34,26.30
2012,07,26,17,35,26.30
2012,07,26,17,36,26.30
2012,07,26,17,37,26.30
2012,07,26,17,38,26.30
2012,07,26,17,39,26.40
2012,07,26,17,40,26.50
2012,07,26,17,41,26.60
2012,07,26,17,42,26.70
2012,07,26,17,43,26.80
2012,07,26,17,44,26.90
2012,07,26,17,45,26.90
2012,07,26,17,46,27.00
2012,07,26,17,47,27.10
2012,07,26,17,48,27.10
2012,07,26,17,49,27.10
2012,07,26,17,50,27.20
2012,07,26,17,51,27.20
2012,07,26,17,52,27.10
2012,07,26,17,53,27.00
2012,07,26,17,54,27.00
2012,07,26,17,55,26.90
2012,07,26,17,56,26.90
2012,07,26,17,57,27.00
2012,07,26,17,58,27.00
2012,07,26,17,59,27.10
2012,07,26,18,00,27.10
2012,07,26,18,01,27.20
2012,07,26,18,02,27.20
2012,07,26,18,03,27.20
2012,07,26,18,04,27.20
2012,07,26,18,05,27.20
2012,07,26,18,06,27.20
2012,07,26,18,07,27.10
2012,07,26,18,08,27.10
2012,07,26,18,09,27.10
2012,07,26,18,10,27.00
2012,07,26,18,11,27.00
2012,07,26,18,12,27.00
2012,07,26,18,13,27.00
2012,07,26,18,14,27.00
2012,07,26,18,15,27.00
2012,07,26,18,16,27.00
2012,07,26,18,17,26.90
2012,07,26,18,18,26.90
2012,07,26,18,19,27.00
2012,07,26,18,20,26.90
2012,07,26,18,21,26.90
2012,07,26,18,22,26.90
2012,07,26,18,23,26.90
2012,07,26,18,24,26.80
2012,07,26,18,25,26.80
2012,07,26,18,26,26.70
2012,07,26,18,27,26.60
2012,07,26,18,28,26.60
2012,07,26,18,29,26.70
2012,07,26,18,30,26.60
2012,07,26,18,31,26.70
2012,07,26,18,32,26.70
2012,07,26,18,33,26.70
2012,07,26,18,34,26.70
2012,07,26,18,35,26.70
2012,07,26,18,36,26.70
2012,07,26,18,37,26.70
2012,07,26,18,38,26.60
2012,07,26,18,39,26.60
2012,07,26,18,40,26.50
2012,07,26,18,41,26.50
2012,07,26,18,42,26.50
2012,07,26,18,43,26.60
2012,07,26,18,44,26.60
2012,07,26,18,45,26.60
2012,07,26,18,46,26.60
2012,07,26,18,47,26.70
2012,07,26,18,48,26.70
2012,07,26,18,49,26.70
2012,07,26,18,50,26.70
2012,07,26,18,51,26.60
2012,07,26,18,52,26.60
2012,07,26,18,53,26.50
2012,07,26,18,54,26.50
2012,07,26,18,55,26.50
2012,07,26,18,56,26.60
2012,07,26,18,57,26.60
2012,07,26,18,58,26.50
2012,07,26,18,59,26.50
2012,07,26,19,00,26.40
2012,07,26,19,01,26.30
2012,07,26,19,02,26.30
2012,07,26,19,03,26.20
2012,07,26,19,04,26.10
2012,07,26,19,05,26.10
2012,07,26,19,06,26.10
2012,07,26,19,07,26.10
2012,07,26,19,08,26.10
2012,07,26,19,09,26.00
2012,07,26,19,10,26.00
2012,07,26,19,11,25.90
2012,07,26,19,12,25.90
2012,07,26,19,13,25.90
2012,07,26,19,14,25.90
2012,07,26,19,15,25.90
2012,07,26,19,16,25.90
2012,07,26,19,17,25.90
2012,07,26,19,18,25.90
2012,07,26,19,19,25.90
2012,07,26,19,20,25.90
2012,07,26,19,21,25.80
2012,07,26,19,22,25.80
2012,07,26,19,23,25.80
2012,07,26,19,24,25.80
2012,07,26,19,25,25.80
2012,07,26,19,26,25.70
2012,07,26,19,27,25.70
2012,07,26,19,28,25.60
2012,07,26,19,29,25.60
2012,07,26,19,30,25.50
2012,07,26,19,31,25.50
2012,07,26,19,32,25.40
2012,07,26,19,33,25.40
2012,07,26,19,34,25.40
2012,07,26,19,35,25.40
2012,07,26,19,36,25.40
2012,07,26,19,37,25.40
2012,07,26,19,38,25.40
2012,07,26,19,39,25.40
2012,07,26,19,40,25.40
2012,07,26,19,41,25.40
